Tracking 29747 objects as of 10-Oct-2024
HD Live streaming from Space Station
objects crossing your sky now

SPACEMOBILE-005

Track SPACEMOBILE-005 now!
10-day predictions


NORAD ID: 61046
Int'l Code: 2024-163B
Perigee: 510.7 km
Apogee: 530.3 km
Inclination: 53.0 °
Period: 94.9 minutes
Semi major axis: 6891 km
RCS: Unknown
Launch date: September 12, 2024
Source: United States (US)
Launch site: AIR FORCE EASTERN TEST RANGE (AFETR)
Your satellite tracking list
Your tracking list is empty




NASA's NSSDC Master Catalog

Two Line Element Set (TLE):
1 61046U 24163B   24283.30497744  .00006772  00000-0  34828-3 0  9990
2 61046  52.9780 258.6563 0014210  47.6136 312.6057 15.17511615  4089
Source of the keplerian elements: AFSPC